Location: Tel Aviv
(32.0670°N, 34.7670°E)
Time: 10:49:51
(UTC+03:00)

ISS - Visible Passes

Search period start: 17 October 2017 00:00
Search period end: 27 October 2017 00:00
Orbit: 401 x 408 km, 51.6° (Epoch: 18 October)

Date Brightness Start Highest point End Pass type
(mag) Time Alt. Az. Time Alt. Az. Time Alt. Az.
17 Oct -2.0 19:21:54 10° WNW 19:24:49 30° SW 19:27:34 11° SSE visible
18 Oct -3.5 18:29:22 10° NW 18:32:38 72° SW 18:35:53 10° SE visible
19 Oct -0.4 19:15:45 10° WSW 19:16:27 10° SW 19:17:08 10° SW visible
